Location: Gleizolles
(44.4833°N, 6.7667°E)
Time: 22:36:58
(UTC+00:00)

Courier 1B Rocket - Visible Passes

Search period start: 25 June 2024 00:00
Search period end: 05 July 2024 00:00
Orbit: 920 x 1201 km, 28.2° (Epoch: 25 June)

Date Brightness Start Highest point End Pass type
(mag) Time Alt. Az. Time Alt. Az. Time Alt. Az.
25 Jun 6.8 01:03:32 13° SSE 01:03:32 13° SSE 01:05:20 10° SE visible
25 Jun 6.5 02:49:53 11° SW 02:54:13 20° S 02:59:01 10° SE visible
26 Jun 6.3 01:52:26 18° S 01:53:23 19° S 01:57:51 10° SE visible
27 Jun 6.8 00:55:04 13° SE 00:55:04 13° SE 00:56:30 10° SE visible
27 Jun 6.4 02:41:25 13° SW 02:44:54 19° S 02:49:25 10° SE visible
28 Jun 6.3 01:44:08 19° S 01:44:08 19° S 01:48:28 10° SE visible
29 Jun 7.0 00:46:59 11° SE 00:46:59 11° SE 00:47:24 10° SE visible
29 Jun 6.4 02:33:21 14° SSW 02:35:35 16° S 02:39:35 10° SSE visible
30 Jun 6.5 01:36:21 16° SSE 01:36:21 16° SSE 01:38:55 10° SE visible
01 Jul 6.5 02:25:56 14° SSW 02:26:16 14° SSW 02:29:19 10° SSE visible
04 Jul 6.6 20:29:02 10° S 20:30:57 11° SSE 20:31:34 11° SSE visible
